CW8846 Weather Reports


time (UTC)temp
F
wind
direction
speed
knots
gust
knots
rain 1hr
in
rain 24hr
in
rain mn
in
humidity
%
barometer
mb
20260502224637 67 166 6.1 8.7 0.00 0.00 0.00 13 1016.9
20260502223626 67 150 9.6 15.6 0.00 0.00 0.00 12 1017.1
20260502222617 68 195 9.6 13.9 0.00 0.00 0.00 11 1017.2
20260502221625 68 186 6.1 13.9 0.00 0.00 0.00 12 1017.3
20260502220617 68 161 9.6 17.4 0.00 0.00 0.00 13 1017.5
20260502215615 68 198 3.5 12.2 0.00 0.00 0.00 13 1017.5
20260502214621 68 191 6.1 11.3 0.00 0.00 0.00 12 1017.8
20260502213630 68 259 8.7 13.0 0.00 0.00 0.00 12 1018.0
20260502212617 68 200 7.8 13.0 0.00 0.00 0.00 12 1018.1
20260502211627 67 258 5.2 12.2 0.00 0.00 0.00 13 1018.2
20260502210614 68 206 9.6 16.5 0.00 0.00 0.00 13 1018.4
20260502205653 68 190 8.7 16.5 0.00 0.00 0.00 13 1018.5
20260502204623 67 159 7.0 13.0 0.00 0.00 0.00 13 1018.6
20260502203617 67 202 7.0 13.9 0.00 0.00 0.00 14 1018.7
20260502202624 67 163 6.1 15.6 0.00 0.00 0.00 14 1018.9
20260502201632 67 234 3.5 11.3 0.00 0.00 0.00 13 1018.9
20260502200621 67 203 7.0 13.9 0.00 0.00 0.00 14 1018.9
20260502195625 66 194 8.7 13.0 0.00 0.00 0.00 15 1019.1
20260502194652 66 178 7.0 15.6 0.00 0.00 0.00 15 1019.1
20260502193616 66 177 6.1 16.5 0.00 0.00 0.00 15 1019.3
20260502192624 66 224 8.7 13.9 0.00 0.00 0.00 17 1019.3
20260502191616 65 229 7.0 13.9 0.00 0.00 0.00 16 1019.5
20260502190624 65 232 9.6 13.9 0.00 0.00 0.00 16 1019.6
20260502185618 66 226 7.8 17.4 0.00 0.00 0.00 16 1019.6
20260502184624 66 216 8.7 13.9 0.00 0.00 0.00 16 1019.7
20260502183616 65 232 7.0 13.0 0.00 0.00 0.00 17 1019.8
20260502182625 65 223 7.8 14.8 0.00 0.00 0.00 16 1019.9
20260502181614 65 198 6.1 13.0 0.00 0.00 0.00 17 1019.9
20260502180614 65 198 7.0 12.2 0.00 0.00 0.00 17 1019.9
20260502163627 61 236 3.5 11.3 0.00 0.00 0.00 22 1020.1
20260502162618 61 181 4.3 7.8 0.00 0.00 0.00 22 1020.1
20260502161646 60 215 3.5 7.8 0.00 0.00 0.00 22 1020.1
20260502160612 60 254 2.6 7.0 0.00 0.00 0.00 21 1020.1
20260502151624 59 173 3.5 5.2 0.00 0.00 0.00 23 1020.1
20260502150617 59 185 3.5 5.2 0.00 0.00 0.00 23 1020.1
20260502130612 44 34 4.3 5.2 0.00 0.00 0.00 38 1019.5
20260502123627 38 18 4.3 7.0 0.00 0.00 0.00 43 1019.4
20260502122619 39 5 5.2 6.1 0.00 0.00 0.00 42 1019.4
20260502121630 43 19 3.5 7.0 0.00 0.00 0.00 37 1019.3
20260502120621 42 13 5.2 7.0 0.00 0.00 0.00 38 1019.3
20260502115617 41 18 5.2 7.0 0.00 0.00 0.00 39 1019.3
20260502114630 41 14 4.3 5.2 0.00 0.00 0.00 39 1019.3
20260502113618 40 13 4.3 6.1 0.00 0.00 0.00 39 1019.4
20260502112629 39 13 4.3 5.2 0.00 0.00 0.00 40 1019.4
20260502111637 42 12 5.2 7.0 0.00 0.00 0.00 37 1019.4
20260502110628 43 15 3.5 5.2 0.00 0.00 0.00 36 1019.4
20260502105625 41 20 4.3 7.8 0.00 0.00 0.00 39 1019.5
20260502104630 42 5 4.3 7.0 0.00 0.00 0.00 38 1019.5
20260502103615 42 11 4.3 7.8 0.00 0.00 0.00 38 1019.4
20260502102628 43 360 6.1 7.8 0.00 0.00 0.00 38 1019.3
20260502101617 41 5 4.3 7.0 0.00 0.00 0.00 41 1019.4
20260502100645 41 360 5.2 5.2 0.00 0.00 0.00 41 1019.4
20260502090625 41 5 4.3 5.2 0.00 0.00 0.00 41 1019.6
20260502070623 40 355 5.2 8.7 0.00 0.00 0.00 39 1019.8
20260502065627 42 355 7.0 8.7 0.00 0.00 0.00 37 1019.8
20260502064612 43 355 7.0 8.7 0.00 0.00 0.00 37 1019.7
20260502063618 43 355 7.0 8.7 0.00 0.00 0.00 36 1019.7
20260502062623 42 349 5.2 7.8 0.00 0.00 0.00 38 1019.7
20260502060613 42 355 7.0 8.7 0.00 0.00 0.00 37 1019.8
20260502055613 42 355 7.0 7.8 0.00 0.00 0.00 37 1019.8
20260502054639 41 355 6.1 7.8 0.00 0.00 0.00 39 1019.8
20260502053626 40 360 7.0 7.8 0.00 0.00 0.00 40 1019.8
20260502052639 41 360 7.0 7.8 0.00 0.00 0.00 37 1019.8
20260502051627 42 360 4.3 7.0 0.00 0.00 0.00 36 1019.8
20260502050635 42 360 5.2 7.8 0.00 0.00 0.00 37 1019.8
20260502045631 42 360 6.1 7.8 0.00 0.00 0.00 38 1019.8
20260502044622 42 355 5.2 7.8 0.00 0.00 0.00 37 1019.9
20260502043630 41 360 4.3 7.8 0.00 0.00 0.00 36 1019.9
20260502042615 40 360 7.0 7.8 0.00 0.00 0.00 37 1019.9
20260502041624 41 5 4.3 7.8 0.00 0.00 0.00 36 1019.9
20260502040638 41 360 6.1 8.7 0.00 0.00 0.00 38 1019.7
20260502035620 43 360 5.2 7.0 0.00 0.00 0.00 35 1019.6
20260502034627 43 360 5.2 7.0 0.00 0.00 0.00 34 1019.5
20260502033634 43 5 6.1 7.8 0.00 0.00 0.00 36 1019.5
20260502032624 45 360 4.3 5.2 0.00 0.00 0.00 32 1019.4
20260502031612 46 12 3.5 4.3 0.00 0.00 0.00 31 1019.3
20260502030616 47 16 3.5 5.2 0.00 0.00 0.00 30 1019.0
20260502025653 45 12 4.3 5.2 0.00 0.00 0.00 32 1018.9
20260502024619 51 355 3.5 5.2 0.00 0.00 0.00 28 1018.7
20260502023631 55 43 3.5 4.3 0.00 0.00 0.00 23 1018.6
20260502022618 57 117 1.7 3.5 0.00 0.00 0.00 21 1018.4
20260502021644 58 119 2.6 3.5 0.00 0.00 0.00 20 1018.4
20260502020630 59 119 1.7 2.6 0.00 0.00 0.00 20 1018.3
20260502015615 60 119 2.6 5.2 0.00 0.00 0.00 19 1018.3
20260502014623 61 122 2.6 5.2 0.00 0.00 0.00 18 1018.2
20260502013627 61 122 2.6 6.1 0.00 0.00 0.00 19 1018.2
20260502012653 62 142 4.3 7.8 0.00 0.00 0.00 18 1018.2
20260502011621 62 124 5.2 7.8 0.00 0.00 0.00 18 1018.1
20260502010628 63 128 4.3 7.8 0.00 0.00 0.00 18 1018.1
20260502005628 63 113 3.5 8.7 0.00 0.00 0.00 18 1018.0
20260502004632 63 134 5.2 9.6 0.00 0.00 0.00 17 1017.9
20260502003642 63 128 2.6 10.4 0.00 0.00 0.00 17 1017.8
20260502002628 63 86 3.5 7.8 0.00 0.00 0.00 17 1017.8
20260502001617 64 146 4.3 7.0 0.00 0.00 0.00 17 1018.2
20260502000627 64 72 4.3 7.8 0.00 0.00 0.00 18 1018.2
20260501235623 64 113 1.7 7.0 0.00 0.00 0.00 17 1018.2
20260501234614 64 138 7.8 11.3 0.00 0.00 0.00 17 1018.3
20260501233642 64 128 6.1 11.3 0.00 0.00 0.00 17 1018.3
20260501232649 64 223 7.8 10.4 0.00 0.00 0.00 17 1018.3
20260501231635 64 147 7.0 11.3 0.00 0.00 0.00 18 1018.4
20260501230625 64 355 2.6 9.6 0.00 0.00 0.00 17 1018.4
20260501225620 63 184 2.6 7.0 0.00 0.00 0.00 17 1018.4